User: anonymous   Login
Location: Indian Hills
(32.9760°N, 85.9450°W)
Time: 19:01:08
(UTC+00:00)
Language:

ISS - Orbit

View from above orbital plane
View from above orbital plane
View from above satellite
View from above satellite

Ground track
Ground track

The orbit data is extracted from the following two-line orbital elements,

1 25544U 98067A   21107.71722659  .00000848  00000-0  23618-4 0  9994
2 25544  51.6450 281.8181 0002592 239.3057 229.4526 15.48892631279228
Epoch (UTC): 17 April 2021 17:12:48
Eccentricity: 0.0002592
inclination: 51.6450°
perigee height: 418 km
apogee height: 422 km
right ascension of ascending node: 281.8181°
argument of perigee: 239.3057°
revolutions per day: 15.48892631
mean anomaly at epoch: 229.4526°
orbit number at epoch: 27922

The dashed part of the orbit path shows where the satellite is in the earth's shadow,  

DLR